Weather Roundup
Issued by NWS Chicago, IL

Home | Current Version | Previous Version | Graphics & Text | Print | Product List | Glossary On
Versions: 1 2 3 4 5 6 7 8 9 10 11 12 13 14 15 16 17 18 19 20 21 22 23 24 25 26 27 28 29 30 31 32 33 34 35 36 37 38 39 40 41 42 43 44 45 46 47 48 49 50
000
NZUS59 KLOT 170006
HRRLOT

CHICAGO AREA WEATHER ROUNDUP
NATIONAL WEATHER SERVICE CHICAGO/ROMEOVILLE IL
700 PM CDT TUE SEP 16 2014

NOTE: "FAIR" INDICATES FEW OR NO CLOUDS BELOW 12,000 FEET WITH NO
SIGNIFICANT WEATHER AND/OR OBSTRUCTIONS TO VISIBILITY.

* THESE STATIONS ARE NOT UNDER NWS QUALITY CONTROL. THEY ALSO MAY NOT
  REPORT WEATHER SUCH AS PRECIPITATION OR FOG.

ILZ005-006-012>014-019>023-170100-
NORTHEAST ILLINOIS

CITY           SKY/WX    TMP DP  RH WIND       PRES   REMARKS
OHARE          CLEAR     67  40  37 N7        30.09S
6HR MIN TEMP:  63; 6HR MAX TEMP:  68;

MIDWAY         PTCLDY    63  48  58 E7        30.09S
6HR MIN TEMP:  63; 6HR MAX TEMP:  69;

AURORA         CLEAR     60  43  53 NW5       30.10S
6HR MIN TEMP:  60; 6HR MAX TEMP:  68;

LANSING*       CLEAR     62  45  53 SW3       30.10S
JOLIET*        CLEAR     58  48  71 CALM      30.10F
WAUKEGAN       CLEAR     56  44  64 CALM      30.09F
6HR MIN TEMP:  56; 6HR MAX TEMP:  65;

DUPAGE AIRPORT CLEAR     60  43  53 NW6       30.09S
6HR MIN TEMP:  60; 6HR MAX TEMP:  68;

WHEELING       CLEAR     60  47  61 NE5       30.11F
6HR MIN TEMP:  60; 6HR MAX TEMP:  68;

KANKAKEE*      CLEAR     61  47  59 CALM      30.10S
MORRIS*        CLEAR     60  48  64 SW3       30.09F
LEWIS AIRPORT* CLEAR     59  45  58 CALM      30.09F
NORTHERLY IS     N/A     60  50  69 E6          N/A
$$

WIZ051-052-058>065-066-070>072-170100-
SOUTHEAST WISCONSIN

CITY           SKY/WX    TMP DP  RH WIND       PRES   REMARKS
MILWAUKEE      CLEAR     56  43  61 SE8       30.09F
6HR MIN TEMP:  56; 6HR MAX TEMP:  65;

KENOSHA*       CLEAR     56  45  66 SE8       30.10F
RACINE*        CLEAR     57  43  59 S5        30.11F
BURLINGTON     CLEAR     52  46  80 CALM      30.09S
WAUKESHA       CLEAR     55  41  58 W6        30.10F
WEST BEND      CLEAR     55  45  67 CALM      30.08S
$$

INZ001>003-010>013-019-020-170100-
NORTHWEST INDIANA

CITY           SKY/WX    TMP DP  RH WIND       PRES   REMARKS
GARY*          PTCLDY    61  52  72 E3        30.10F
MICHIGAN CITY* NOT AVBL
RENSSELAER*    NOT AVBL
VALPARAISO     CLEAR     59  47  64 N3        30.10F
$$

LMZ740>746-170100-
SOUTHERN LAKE MICHIGAN

STATION/POSITION TIME  SKY/WX   TEMP WIND        PRES    VSBY
                                AIR  DIR/SP/G
                 (UTC)          (F)  (DEG/KT/KT) (MB)    (MI)
HARRISON CRIB    0000            60   80/  8/ 10   N/A
BURNHAM HARBOR   0000            60   70/  5/  6   N/A
CALUMET HARBOR   0000            61   60/  5/  6 1017.8F
BURNS HARBOR     NOT AVBL
MICHIGAN CITY    0000            60   30/  7/  8   N/A
$$

ABBREVIATIONS USED IN REMARKS
   TC - TEMPERATURE IN CELSIUS
  WCI - WIND CHILL INDEX
   HX - HEAT INDEX
  VSB - VISIBILITY
$$


USA.gov is the U.S. government's official web portal to all federal, state and local government web resources and services.